Location: Bełchatów
(51.3638°N, 19.3624°E)
Time: 10:52:43
(UTC+02:00)

ISS - Visible Passes

Search period start: 22 September 2018 00:00
Search period end: 02 October 2018 00:00
Orbit: 403 x 408 km, 51.6° (Epoch: 22 September)

Date Brightness Start Highest point End Pass type
(mag) Time Alt. Az. Time Alt. Az. Time Alt. Az.
22 Sep -1.6 20:27:55 10° SSW 20:28:50 15° S 20:28:50 15° S visible
23 Sep -1.9 19:36:58 10° S 19:38:52 15° SE 19:39:35 14° SE visible
23 Sep -1.2 21:11:37 10° SW 21:12:17 15° SW 21:12:17 15° SW visible
24 Sep -3.1 20:19:56 10° SW 20:22:49 37° SSE 20:22:49 37° SSE visible
25 Sep -2.6 19:28:26 10° SSW 19:31:14 26° SSE 19:33:12 15° E visible
25 Sep -2.1 21:04:09 10° WSW 21:05:53 28° WSW 21:05:53 28° WSW visible
26 Sep -3.8 20:12:17 10° WSW 20:15:32 60° SSE 20:16:08 49° ESE visible
26 Sep -0.5 21:48:43 10° W 21:48:48 11° W 21:48:48 11° W visible
27 Sep -3.3 19:20:31 10° SW 19:23:39 43° SSE 19:26:17 14° E visible
27 Sep -2.5 20:56:45 10° W 20:58:57 39° W 20:58:57 39° W visible
28 Sep -3.9 20:04:47 10° WSW 20:08:05 84° S 20:09:02 44° E visible
28 Sep -0.6 21:41:19 10° W 21:41:42 13° W 21:41:42 13° W visible
29 Sep -3.8 19:12:51 10° WSW 19:16:08 68° SSE 19:19:03 13° E visible
29 Sep -2.7 20:49:20 10° W 20:51:43 44° W 20:51:43 44° W visible
30 Sep -3.9 19:57:19 10° W 20:00:38 84° N 20:01:42 40° E visible
30 Sep -0.7 21:33:51 10° W 21:34:21 14° W 21:34:21 14° W visible
01 Oct -3.8 19:05:18 10° W 19:08:37 89° S 19:11:39 12° E visible
01 Oct -2.8 20:41:50 10° W 20:44:18 47° W 20:44:18 47° W visible
